www.pogodaiklimat.ru

Погода и климат >> Архив погоды >> Португалия >> Ангра-ду-Эроижму


ПОГОДА в Ангра-ду-Эроижму

  • Прогноз погоды в Ангра-ду-Эроижму
  • Монитор погоды в Ангра-ду-Эроижму

АРХИВ ПОГОДЫ в Ангра-ду-Эроижму

Время (UTC), дата Ветер
(напр.,м/с)
 
Видим.   Явления Облачность Т
(С)
Тd
(С)
f
(%)
Тe
(С)
Тes
(С)
Комфортность P
(гПа)
Po
(гПа)
Тmin
(С)
Tmax
(С)
R
(мм)
R24
(мм)
S
(см)
22 15.09 штиль 0
{5}
н/о н/о +20.3 +20.3 100 +24 +24 комфорт 1022.2 1011.6
23 15.09 С 1
{5}
н/о н/о +20.1 +20.1 100 +25 +25 комфорт 1022.3 1011.7
00 16.09 штиль 0 н/о н/о +20.3 +20.3 100 +24 +24 комфорт 1021.9 1011.3
01 16.09 СВ 4-8
{8}
н/о н/о +20.6 -26.1 3 +19 +19 1021.5 1010.9
02 16.09 С 2
{7}
н/о н/о +20.9 +20.9 100 +27 +27 душно 1021.0 1010.5
03 16.09 СВ 3-6
{6}
н/о н/о +21.0 +21.0 100 +27 +27 душно 1021.0 1010.4
04 16.09
{6}
н/о н/о +20.8 +20.8 100 1020.4 1009.9
05 16.09 СВ 2-5
{6}
н/о н/о +20.6 +20.6 100 +26 +26 душно 1020.3 1009.7
06 16.09 С 2-6
{6}
н/о н/о +20.7 +20.7 100 +26 +26 душно 1020.2 1009.7 +19.9
07 16.09 -6
{6}
н/о н/о +20.8 +20.8 100 1019.8 1009.2
08 16.09 СВ 3-6
{7}
н/о н/о +20.8 +20.8 100 +26 +26 душно 1020.5 1009.9
09 16.09 СВ 3-6
{6}
н/о н/о +21.3 +21.3 100 +27 +27 душно 1020.7 1010.2
11 16.09 СВ 4-7
{8}
н/о н/о +23.5 +23.5 100 +32 +32 очень
душно
1020.9 1010.4
12 16.09 СВ 4-7
{8}
н/о н/о +22.4 +22.4 100 +30 +30 очень
душно
1020.9 1010.4
13 16.09 СВ 6-9
{9}
н/о н/о +23.2 +23.2 100 +33 +33 очень
душно
1020.3 1009.9
15 16.09 В 5-8
{10}
н/о н/о +23.0 +23.0 100 +32 +32 очень
душно
1019.3 1008.9
16 16.09 В 4-6
{8}
н/о н/о +23.8 +23.8 100 +32 +32 очень
душно
1019.0 1008.5
17 16.09 СВ 4-7
{8}
н/о н/о +23.6 +23.6 100 +32 +32 очень
душно
1018.2 1007.8
18 16.09 СВ 3-6
{7}
н/о н/о +22.3 +19 +19 1018.1 1007.6
19 16.09 В 3-6
{6}
н/о н/о +22.1 +19 +19 1018.2 1007.7
20 16.09 СВ 3-6
{7}
н/о н/о +21.8 -25.3 3 +19 +19 1018.0 1007.5
21 16.09 СВ 3-5
{6}
н/о н/о +21.8 -25.3 3 +19 +19 1018.1 1007.6
22 16.09 СВ 3-6
{6}
н/о н/о +21.8 +19 +19 1017.9 1007.4
23 16.09 СВ 4-7
{7}
н/о н/о +21.9 +19 +19 1017.7 1007.2
00 17.09 В 4-7
{7}
н/о н/о +21.8 +19 +19 1017.7 1007.2
01 17.09 В 4-6
{7}
н/о н/о +21.8 +19 +19 1016.9 1006.5
02 17.09 СВ 3-6
{7}
н/о н/о +21.7 +19 +19 1016.5 1006.0
03 17.09 СВ 3-6
{6}
н/о н/о +21.7 -24.0 3 +19 +19 1015.7 1005.2
04 17.09 СВ 4-6
{7}
н/о н/о +21.8 +19 +19 1015.1 1004.6
05 17.09 В 3-6
{7}
н/о н/о +21.8 +19 +19 1014.9 1004.4
06 17.09 СВ 3
{7}
н/о н/о +21.7 -25.4 3 +19 +19 1014.5 1004.1 +21.6
07 17.09 С 3
{6}
н/о н/о +21.7 -25.4 3 +19 +19 1014.3 1003.8
08 17.09 СВ 1
{7}
н/о н/о +21.4 -25.6 3 +19 +19 1014.9 1004.4
09 17.09 В 4-7
{9}
н/о н/о +20.5 -26.2 3 +19 +19 1014.9 1004.4
11 17.09 В 6-11
{15}
н/о н/о +20.1 +19 +19 1014.9 1004.4
12 17.09 В 7-12
{12}
н/о н/о +21.5 +19 +19 1014.4 1003.9
13 17.09 В 7-12
{13}
н/о н/о +22.0 +19 +19 1013.8 1003.3
14 17.09 В 4-8
{13}
н/о н/о +21.4 +19 +19 1013.8 1003.3
15 17.09 В 6-11
{11}
н/о н/о +21.9 -25.3 3 +19 +19 1013.2 1002.7
16 17.09 В 5-9
{11}
н/о н/о +21.9 -22.9 4 +19 +19 1012.8 1002.4
17 17.09 В 5-9
{11}
н/о н/о +21.6 -25.5 3 +19 +19 1012.7 1002.3
18 17.09 В 6-9
{11}
н/о н/о +21.5 -25.5 3 +19 +19 1012.3 1001.8
19 17.09 В 5-10
{10}
н/о н/о +21.7 -25.4 3 +19 +19 1012.2 1001.7
20 17.09 В 4-7
{10}
н/о н/о +21.5 +19 +19 1012.2 1001.7
21 17.09 В 3-6
{7}
н/о н/о +21.7 +19 +19 1012.5 1002.1
22 17.09
{8}
н/о н/о +21.6 -25.5 3 1012.8 1002.4
23 17.09
{6}
н/о н/о +21.7 1012.8 1002.3
00 18.09 С 1
{5}
н/о н/о +21.8 +19 +19 1012.4 1002.0
01 18.09 штиль 0
{5}
н/о н/о +21.8 +19 +19 1011.9 1001.5
02 18.09 штиль 0 н/о н/о +21.7 +19 +19 1011.8 1001.3
03 18.09 нст 2
{5}
н/о н/о +21.8 1011.5 1001.1
04 18.09 нст 3-7
{7}
н/о н/о +21.8 -25.4 3 +19 +19 1011.0 1000.6
05 18.09
{6}
н/о н/о +21.6 -25.5 3 1011.1 1000.6
06 18.09 штиль 0 н/о н/о +21.3 -25.7 3 +19 +19 1011.4 1000.9 +21.3
07 18.09 штиль 0 н/о н/о +21.0 +19 +19 1011.8 1001.4
08 18.09 штиль 0 н/о н/о +20.9 -25.9 3 +19 +19 1012.2 1001.8
09 18.09 штиль 0 н/о н/о +21.9 -25.3 3 +19 +19 1012.6 1002.2
10 18.09 штиль 0 н/о н/о +23.1 -24.4 3 +20 +20 1012.9 1002.5
11 18.09 ЮВ 4-5
{7}
н/о н/о +23.2 +23.2 100 +33 +33 очень
душно
1013.2 1002.8 2
12 18.09 ЮВ 3
{6}
н/о н/о +23.5 +23.5 100 +32 +32 очень
душно
1013.3 1002.9
13 18.09 ЮВ 3
{5}
н/о н/о +23.6 +23.6 100 +32 +32 очень
душно
1013.2 1002.8
14 18.09 С 3-6
{7}
н/о н/о +22.4 -23.9 3 +19 +19 1013.4 1002.9
15 18.09 Ю 5-10
{10}
н/о н/о +23.1 +23.1 100 +32 +32 очень
душно
1012.9 1002.5
16 18.09 Ю 6-10
{10}
н/о н/о +23.5 +21.7 90 +30 +30 очень
душно
1012.8 1002.4
17 18.09 Ю 4-8
{10}
н/о н/о +23.5 +23.5 100 +32 +32 очень
душно
1012.8 1002.4
18 18.09 ЮЗ 4-8
{8}
н/о н/о +23.0 +23.0 100 +32 +32 очень
душно
1013.3 1002.9 +24.3
19 18.09 Ю 5-9
{11}
н/о н/о +22.6 +22.6 100 +31 +31 очень
душно
1013.5 1003.1
20 18.09 ЮЗ 4-8
{9}
н/о н/о +22.3 +22.3 100 +30 +30 очень
душно
1013.9 1003.5
21 18.09 ЮЗ 4-9
{9}
н/о н/о +21.8 +19 +19 1014.4 1004.0 2
22 18.09 Ю 4-8
{8}
н/о н/о +21.8 -25.4 3 +19 +19 1015.2 1004.7
23 18.09 Ю 4-7
{9}
н/о н/о +21.6 -25.5 3 +19 +19 1015.3 1004.8
00 19.09 С 2
{5}
н/о н/о +21.4 +19 +19 1015.3 1004.9
01 19.09 -6
{6}
н/о н/о +21.3 1015.2 1004.7
02 19.09 С 3-5
{5}
н/о н/о +21.0 +20 +20 1014.6 1004.1
03 19.09 штиль 0 н/о н/о +20.9 -26.0 3 +19 +19 1014.7 1004.2
04 19.09 штиль 0 н/о н/о +21.0 -24.5 3 +19 +19 1014.6 1004.1
05 19.09 штиль 0 н/о н/о +20.8 +19 +19 1014.9 1004.4
06 19.09 штиль 0 н/о н/о +20.1 -26.5 3 +19 +19 1015.0 1004.5 +20.1
07 19.09 штиль 0 н/о н/о +20.5 +19 +19 1015.3 1004.8
08 19.09 штиль 0 н/о н/о +20.4 +19 +19 1015.7 1005.2
09 19.09 штиль 0 н/о н/о +21.6 -25.5 3 +19 +19 1016.0 1005.5
10 19.09 штиль 0 н/о н/о +22.5 +19 +19 1016.2 1005.8
11 19.09 С 2
{5}
н/о н/о +23.3 +23.3 100 +33 +33 очень
душно
1016.2 1005.8
12 19.09 ЮВ 3-6
{6}
н/о н/о +23.2 +23.2 100 +33 +33 очень
душно
1016.1 1005.7
13 19.09 -6
{6}
н/о н/о +23.9 +23.9 100 1015.7 1005.3
14 19.09 -5
{6}
н/о н/о +24.2 +22.2 89 1015.6 1005.2
15 19.09 Ю 4-7
{7}
н/о н/о +24.2 +24.2 100 +33 +33 очень
душно
1015.5 1005.1
16 19.09 -6
{8}
н/о н/о +24.1 -23.8 3 1015.1 1004.7
17 19.09 Ю 3-5
{7}
н/о н/о +23.3 -24.3 3 +20 +20 1014.9 1004.5
18 19.09 Ю 3-6
{7}
н/о н/о +23.1 -24.5 3 +20 +20 1014.8 1004.4 +24.7
19 19.09 С 3-5
{6}
н/о н/о +22.7 -24.7 3 +20 +20 1014.9 1004.5
20 19.09 Ю 4-6
{7}
н/о н/о +22.5 -22.1 4 +20 +20 1015.1 1004.6
21 19.09 нст 3
{7}
н/о н/о +22.3 1015.4 1004.9
22 19.09 Ю 3-5
{7}
н/о н/о +22.6 -24.8 3 +20 +20 1015.5 1005.0
23 19.09 Ю 5-8
{10}
н/о н/о +22.8 -24.7 3 +20 +20 1015.6 1005.1
00 20.09 Ю 5-10
{10}
н/о н/о +22.4 +19 +19 1015.3 1004.8
01 20.09 -5
{10}
н/о н/о +22.0 1014.7 1004.3
02 20.09 -6
{6}
н/о н/о +21.8 1014.6 1004.1
03 20.09 Ю 3
{6}
н/о н/о +21.5 -25.6 3 +19 +19 1013.8 1003.4
04 20.09 Ю 3
{5}
н/о н/о +21.3 -23.6 4 +19 +19 1013.2 1002.8
05 20.09
{5}
н/о н/о +21.3 1012.7 1002.3
06 20.09 С 2
{6}
н/о н/о +21.5 -25.6 3 +19 +19 1012.4 1001.9 +21.1
07 20.09 С 2
{5}
н/о н/о +21.8 -25.3 3 +19 +19 1011.7 1001.3
08 20.09 Ю 5-9
{9}
н/о н/о +21.3 +19 +19 1011.7 1001.2 0.1
09 20.09 нст 2-6
{8}
н/о н/о +21.1 -25.8 3 1011.6 1001.2
10 20.09 ЮЗ 3-9
{9}
н/о н/о +22.1 +20.8 92 +28 +28 душно 1012.7 1002.2
11 20.09 -7
{10}
н/о н/о +21.2 1013.2 1002.8 7
12 20.09 ЮЗ 6-13
{13}
н/о н/о +23.3 +19.6 80 +30 +30 очень
душно
1013.4 1003.0
13 20.09 ЮЗ 7-11
{13}
н/о н/о +22.9 +17.5 72 +28 +28 душно 1013.9 1003.5
14 20.09 ЮЗ 6-12
{14}
н/о н/о +23.1 +17.1 69 +28 +28 душно 1013.8 1003.4
15 20.09 ЮЗ 6-11
{13}
н/о н/о +22.7 +15.2 63 +27 +27 душно 1014.0 1003.6
16 20.09 ЮЗ 8-14
{14}
н/о н/о +22.4 +15.5 65 +26 +26 жарко 1014.2 1003.7
17 20.09 ЮЗ 7-11
{14}
н/о н/о +22.0 +14.9 64 +25 +25 комфорт 1014.5 1004.1
18 20.09 ЮЗ 6-11
{12}
н/о н/о +21.1 +14.8 67 +24 +24 комфорт 1014.9 1004.4 +23.6
19 20.09 ЮЗ 5-10
{11}
н/о н/о +20.4 +14.8 70 +23 +23 комфорт 1015.4 1004.8
20 20.09 ЮЗ 3-7
{10}
н/о н/о +19.7 +14.8 73 +22 +22 комфорт 1015.7 1005.2
21 20.09 нст 1
{8}
н/о н/о +19.2 +14.5 74 1016.3 1005.7 7
22 20.09 -6
{6}
н/о н/о +19.2 +14.8 76 1016.7 1006.1
23 20.09 ЮЗ 3-7
{7}
н/о н/о +19.0 +15.1 78 +20 +20 1016.8 1006.2
00 21.09 С 2-6
{9}
н/о н/о +18.6 +13.2 71 +20 +20 1016.7 1006.1
01 21.09 С 3-8
{9}
н/о н/о +19.0 +13.4 70 +20 +20 1016.3 1005.7
02 21.09 С 3-8
{8}
н/о н/о +19.0 +14.1 73 +20 +20 1016.0 1005.5
03 21.09 ЮЗ 5-10
{11}
н/о н/о +19.0 +13.0 68 +20 +20 1015.8 1005.2
04 21.09 ЮЗ 5-11
{11}
н/о н/о +19.2 +13.2 68 +20 +20 1015.4 1004.8
05 21.09 ЮЗ 5-9
{9}
н/о н/о +19.3 +14.6 74 +21 +21 комфорт 1015.5 1004.9
06 21.09 ЮЗ 4-8
{11}
н/о н/о +18.4 +16.3 88 +19 +19 1015.9 1005.3 +18.4
07 21.09 -6
{9}
н/о н/о +18.8 +14.1 74 1015.9 1005.3
08 21.09 ЮЗ 5-10
{11}
н/о н/о +19.2 +15.2 78 +20 +20 1016.0 1005.4
09 21.09 ЮЗ 4-9
{9}
н/о н/о +20.0 +15.3 74 +22 +22 комфорт 1016.4 1005.8
10 21.09 ЮЗ 3-8
{11}
н/о н/о +20.4 +15.4 73 +23 +23 комфорт 1016.8 1006.3
11 21.09 ЮЗ 3-7
{8}
н/о н/о +21.2 +14.8 67 +24 +24 комфорт 1017.2 1006.7
12 21.09 С 2-7
{10}
н/о н/о +22.5 +15.7 65 +26 +26 жарко 1017.0 1006.5
13 21.09 ЮЗ 3-10
{10}
н/о н/о +22.5 +14.5 61 +26 +26 жарко 1016.9 1006.4
14 21.09 ЮЗ 3-7
{10}
н/о н/о +23.2 +15.1 60 +27 +27 душно 1016.8 1006.4
15 21.09 ЮЗ 4-8
{9}
н/о н/о +22.5 +16.0 67 +27 +27 душно 1017.0 1006.5
16 21.09 ЮЗ 5-8
{9}
н/о н/о +21.6 +15.3 67 +25 +25 комфорт 1016.7 1006.2
17 21.09 Ю 5-9
{10}
н/о н/о +22.5 +15.9 66 +27 +27 душно 1016.8 1006.3
18 21.09 ЮЗ 4-7
{10}
н/о н/о +22.1 +15.9 68 +26 +26 душно 1016.8 1006.3 +23.5
19 21.09
{7}
н/о н/о +21.1 +16.3 74 1017.1 1006.6
20 21.09 штиль 0
{5}
н/о н/о +20.3 +16.7 80 +23 +23 комфорт 1017.3 1006.7
21 21.09 штиль 0 н/о н/о +19.4 +16.5 83 +21 +21 комфорт 1017.7 1007.1
22 21.09 штиль 0 н/о н/о +19.2 +15.9 81 +21 +21 комфорт 1017.9 1007.3
23 21.09 штиль 0 н/о н/о +19.6 +16.0 80 +22 +22 комфорт 1017.6 1007.1
00 22.09 штиль 0 н/о н/о +19.2 +17.0 87 +21 +21 комфорт 1017.6 1007.0
01 22.09 штиль 0 н/о н/о +18.8 +17.8 94 +20 +20 1017.1 1006.5
02 22.09 штиль 0 н/о н/о +19.4 +18.4 94 +22 +22 комфорт 1016.7 1006.1
03 22.09 нст 2
{5}
н/о н/о +20.7 +19.5 93 1016.0 1005.5
04 22.09 ЮВ 3-7
{7}
н/о н/о +20.5 +20.5 100 +25 +25 комфорт 1015.0 1004.5
05 22.09 ЮВ 6-10
{10}
н/о н/о +20.6 +19 +19 1014.8 1004.3
06 22.09 ЮВ 4-7
{11}
н/о н/о +20.6 +19 +19 1014.9 1004.4 +18.8
07 22.09 ЮВ 7-11
{11}
н/о н/о +21.5 -25.5 3 +19 +19 1014.7 1004.2
08 22.09 ЮВ 6
{12}
н/о н/о +21.6 -24.0 3 +19 +19 1014.7 1004.2
09 22.09 ЮВ 5-10
{10}
н/о н/о +21.8 -23.1 4 +19 +19 1014.4 1003.9
10 22.09 ЮВ 8-13
{13}
н/о н/о +21.7 +19 +19 1014.2 1003.8
11 22.09 ЮВ 6-10
{11}
н/о н/о +22.3 -25.0 3 +19 +19 1014.2 1003.8
12 22.09 ЮВ 6-10
{11}
н/о н/о +22.7 +19 +19 1013.8 1003.4
13 22.09 ЮВ 7
{11}
н/о н/о +23.1 -24.5 3 +20 +20 1013.7 1003.3
14 22.09 ЮВ 7
{11}
н/о н/о +22.6 +19 +19 1013.2 1002.8
15 22.09 ЮВ 5-10
{11}
н/о н/о +22.9 +19 +19 1012.9 1002.5
16 22.09 ЮВ 6-9
{11}
н/о н/о +22.7 +19 +19 1012.2 1001.8
17 22.09 ЮВ 5-8
{10}
н/о н/о +22.7 +19 +19 1011.9 1001.5
18 22.09 ЮВ 6-12
{12}
н/о н/о +22.9 +19 +19 1011.9 1001.5 +23.7
19 22.09 Ю 6-11
{12}
н/о н/о +22.7 -24.7 3 +20 +20 1012.1 1001.6
20 22.09 Ю 5-9
{11}
н/о н/о +22.6 -24.8 3 +20 +20 1012.4 1002.0
21 22.09 Ю 7-12
{12}
н/о н/о +22.4 -23.1 4 +20 +20 1012.1 1001.7

 

Местоположение метеостанции Ангра-ду-Эроижму (Португалия): широта 38.67 долгота -27.21 высота над уровнем моря 76 м.

В архиве по умолчанию представлена погода в Ангра-ду-Эроижму за последнюю неделю. Архивные данные за месяц целиком и за предыдущие месяцы, начиная с января 2011 года, Вы можете получить, выбрав интересующий диапазон дат из раскрывающегося списка и нажав кнопку "Ввод!".


*Определитесь, кто Вы:
робот инопланетянин человек

Внимание! Время в таблицах - всемирное. Для получения местного времени необходимо прибавить поправку, которая равна 0 ч.

Смотрите также архив погоды в соседних городах и на ближайших метеорологических станциях:

Погода в Аэропорту Лажеша (Португалия) (15 км)
Погода в Сан-Жоржи (Португалия) (83 км)
Погода на Острове Грасьоса (Португалия) (84 км)
Погода в Пико (Португалия) (108 км)
Погода в Орте (Португалия) (125 км)
Погода в Каштелу-Бранку (Португалия) (131 км)
Погода в Понта-Делгаде (Португалия) (168 км)
Погода в Санта-Марии (Португалия) (261 км)
Погода на Флошише (Португалия) (349 км)
Погода в Фуншале (Португалия) (1148 км)

Пояснения к столбцам:

Ветер - указаны скорость ветра в м/с - средняя за 10 мин, порывы в срок и между сроками (в фигурных скобках) и направление, откуда дует ветер: С - северный, СВ - северо-восточный, В - восточный, ЮВ - юго-восточный, Ю - южный, ЮЗ - юго-западный, З - западный, СЗ - северо-западный.
Видимость - горизонтальная дальность видимости в метрах или километрах. При видимости от 1 до 10 км при отсутствии осадков обычно наблюдается дымка, при ухудшении видимости до 1 км и менее - туман. В сухую погоду видимость может ухудшаться дымом, пылью или мглою.
Явления - указаны атмосферные явления, наблюдавшиеся в срок или в последний час перед сроком; фигурными скобками обозначены явления, наблюдавшиеся между сроками (за 1-3 часа до срока); квадратными скобками обозначены град или гололедные отложения с указанием их диаметра в мм.
Облачность - указаны через наклонную черту общая и нижняя облачность в баллах и высота нижней границы облаков в метрах; квадратными скобками обозначены формы облаков: Ci - перистые, Cs - перисто-слоистые, Cc - перисто-кучевые, Ac - высококучевые, As - высокослоистые, Sc - слоисто-кучевые, Ns - слоисто-дождевые, Cu - кучевые, Cb - кучево-дождевые. Подробнее классификацию облаков см. в Атласе облаков (PDF).
T - Температура воздуха - температура, измеренная на высоте 2 м над землей.
Td - Температура точки росы - температура, при понижении до которой содержащийся в воздухе водяной пар достигнет насыщения.
f - Относительная влажность воздуха - влажноcть воздуха, измеренная на высоте 2 м над землей.
Te - Эффективная температура - температура, которую ощущает одетый по сезону человек в тени. Характеристика душности погоды. При расчете учитывается влияние влажности воздуха и скорости ветра на теплоощущения человека.
Tes - Эффективная температура на солнце - температура, которую ощущает человек, с поправкой на солнечный нагрев. Характеристика знойности погоды. Зависит от высоты солнца над горизонтом, облачности и скорости ветра. Ночью, в пасмурную погоду, а также при ветре 12 м/с и более поправка равна нулю.
P - Атмосферное давление - приведенное к уровню моря атмосферное давление.
Po - Атмосферное давление - измеренное на уровне метеостанции атмосферное давление.
Tmin - Минимальная температура - минимум температуры воздуха на высоте 2 м над землей.
Tmax - Максимальная температура - максимум температуры воздуха на высоте 2 м над землей.
R - Количество осадков - Количество выпавших осадков за период времени, мм. При наведении курсора мыши на число - период времени, за который выпало указанное количество осадков.
R24 - Количество осадков - Количество выпавших осадков за 24 часа, мм.
S - Снежный покров - Высота снежного покрова, см. При наведении курсора мыши на число - состояние снежного покрова и степень покрытия местности в баллах.